Weather History for Tampa Macdill AFB, FL

Change the Weather History Date:

Saturday, September 1, 2012

  Actual Average Record
Temperature  
Mean Temperature 84 °F -  
Max Temperature 93 °F 87 °F 96 °F (2014)
Min Temperature 75 °F 73 °F 72 °F (2010)
Cooling Degree Days 19    
Growing Degree Days 34 (Base 50)    
Moisture  
Dew Point 75 °F    
Average Humidity 76    
Maximum Humidity 99    
Minimum Humidity 53    
Precipitation  
Precipitation 0.00 in - - ()
Sea Level Pressure  
Sea Level Pressure 30.12 in    
Wind  
Wind Speed 7 mph (SE)    
Max Wind Speed 10 mph    
Max Gust Speed -    
Visibility 10 miles    
Events      
Averages and records for this station are not official NWS values.
T = Trace of Precipitation, MM = Missing Value Source: NWS Daily Summary

Daily Weather History Graph

Daily Weather History Graph

Search for Another Location

Airport:

Trip Planner

Search our weather history database for the weather conditions in past years. The results will help you decide how hot, cold, wet, or windy it might be!

Date:

Astronomy

Sep. 01, 2012 Rise Set
Actual Time 7:09 AM EDT 7:50 PM EDT
Civil Twilight 6:45 AM EDT 8:14 PM EDT
Nautical Twilight 6:17 AM EDT 8:42 PM EDT
Astronomical Twilight 5:48 AM EDT 9:10 PM EDT
Moon 8:20 PM EDT (9/1) 8:04 AM EDT (9/1)
Length of Visible Light 13h 28m
Length of Day
12h 41m
Full, 99% of the Moon is Illuminated
Sep 1
Full
Sep 8
Last Quarter
Sep 15
New
Sep 22
First Quarter
Sep 29
Full

Hourly Weather History & Observations

Time (EDT) Temp. Heat Index Dew Point Humidity Pressure Visibility Wind Dir Wind Speed Gust Speed Precip Events Conditions
12:55 AM 80.1 °F 85.7 °F 76.6 °F 89% 30.14 in 10.0 mi South 9.2 mph - N/A   Clear
1:55 AM 79.3 °F - 76.6 °F 91% 30.13 in 10.0 mi SSE 8.1 mph - N/A   Clear
2:55 AM 78.6 °F - 76.1 °F 92% 30.13 in 10.0 mi SSE 9.2 mph - N/A   Clear
3:55 AM 78.1 °F - 76.8 °F 96% 30.12 in 10.0 mi SSE 6.9 mph - N/A   Clear
4:55 AM 76.5 °F - 75.4 °F 96% 30.12 in 10.0 mi SSE 5.8 mph - N/A   Clear
5:55 AM 75.4 °F - 74.1 °F 96% 30.12 in 10.0 mi ESE 3.5 mph - N/A   Clear
6:55 AM 75.6 °F - 74.7 °F 97% 30.13 in 10.0 mi ESE 4.6 mph - N/A   Clear
7:55 AM 77.0 °F - 76.8 °F 99% 30.14 in 10.0 mi SE 3.5 mph - N/A   Clear
8:55 AM 81.1 °F 90.3 °F 79.9 °F 96% 30.16 in 10.0 mi SE 8.1 mph - N/A   Clear
9:55 AM 84.6 °F 95.5 °F 77.9 °F 80% 30.16 in 10.0 mi South 8.1 mph - N/A   Clear
10:55 AM 87.1 °F 99.8 °F 77.9 °F 74% 30.17 in 10.0 mi South 6.9 mph - N/A   Partly Cloudy
11:55 AM 88.9 °F 100.9 °F 76.8 °F 67% 30.17 in 10.0 mi Variable 5.8 mph - N/A   Clear
12:55 PM 91.0 °F 104.2 °F 76.6 °F 63% 30.16 in 10.0 mi East 8.1 mph - N/A   Clear
1:55 PM 92.7 °F 105.0 °F 76.1 °F 58% 30.14 in 10.0 mi East 8.1 mph - N/A   Clear
2:55 PM 93.2 °F 103.7 °F 74.5 °F 54% 30.12 in 10.0 mi Variable 5.8 mph - N/A   Clear
3:55 PM 93.7 °F 104.3 °F 74.3 °F 53% 30.09 in 10.0 mi ESE 8.1 mph - N/A   Clear
4:55 PM 92.3 °F 102.2 °F 73.9 °F 55% 30.06 in 10.0 mi ESE 4.6 mph - N/A   Clear
5:55 PM 92.1 °F 100.5 °F 72.7 °F 53% 30.06 in 10.0 mi SE 9.2 mph - N/A   Clear
6:55 PM 89.6 °F 97.2 °F 72.5 °F 57% 30.06 in 10.0 mi SSE 8.1 mph - N/A   Clear
7:55 PM 86.7 °F 94.1 °F 73.0 °F 64% 30.07 in 10.0 mi South 10.4 mph - N/A   Clear
8:55 PM 84.2 °F 90.3 °F 72.5 °F 68% 30.09 in 10.0 mi South 9.2 mph - N/A   Clear
9:55 PM 82.8 °F 88.2 °F 72.5 °F 71% 30.10 in 10.0 mi South 9.2 mph - N/A   Clear
10:55 PM 80.8 °F 85.6 °F 73.4 °F 78% 30.10 in 10.0 mi South 6.9 mph - N/A   Clear
11:55 PM 79.9 °F - 74.1 °F 82% 30.10 in 10.0 mi SSE 6.9 mph - N/A   Clear